Regional Weather Roundup
Issued by NWS

Home | Current Version | Previous Version | Graphics & Text | Print | Product List | Glossary On
Versions: 1 2 3 4 5 6 7 8 9 10 11 12 13 14 15 16 17 18 19 20 21 22 23 24 25 26 27 28 29 30 31 32 33 34 35 36 37 38 39 40 41 42 43 44 45 46 47 48 49 50
000
ASUS43 KDMX 241503
RWRIA

WEATHER ROUNDUP FOR IOWA
NATIONAL WEATHER SERVICE DES MOINES IA
1000 AM CDT WED AUG 24 2016

NOTE: "FAIR" INDICATES FEW OR NO CLOUDS BELOW 12,000 FEET WITH NO
SIGNIFICANT WEATHER AND/OR OBSTRUCTIONS TO VISIBILITY.

* - THESE STATIONS ARE NOT NWS STATIONS...THUS NOT UNDER NWS
QUALITY CONTROL.  THEY ALSO DO NOT REPORT WEATHER SUCH
AS PRECIPITATION OR FOG.

IAZ001>003-012>014-020>022-031>034-043>046-241600-
   NORTHWEST IOWA

CITY           SKY/WX    TMP DP  RH WIND       PRES   REMARKS
CARROLL *      CLOUDY    73  70  88 W10       29.96R
CHEROKEE *     MOSUNNY   73  64  71 N6        29.97R
DENISON *      CLOUDY    73  68  83 NW7       29.96R
LE MARS *      CLOUDY    70  57  64 N7        30.00R
ORANGE CITY *  CLOUDY    70  61  73 N5        29.99R
SHELDON *      CLOUDY    70  61  73 NW6       29.97R
SIOUX CITY     PTSUNNY   71  60  68 NW8       29.98S
SPENCER        CLOUDY    73  61  65 N8        29.96R
STORM LAKE *   MOSUNNY   73  63  68 N12G20    29.96S
$$

IAZ055>058-069>071-079>083-090>094-241600-
   SOUTHWEST IOWA

CITY           SKY/WX    TMP DP  RH WIND       PRES   REMARKS
ATLANTIC *     CLOUDY    72  70  94 NW6G14    29.96S
AUDUBON *      CLOUDY    72  68  88 NW8       29.98R
CLARINDA *       N/A     73  66  78 MISG      30.01R
COUNCIL BLFS * MOSUNNY   72  66  83 N10G20    29.97S
CRESTON *      MOSUNNY   73  66  78 W8        29.99R
HARLAN  *      PTSUNNY   72  70  94 NW10      30.00R FOG
LAMONI         CLOUDY    71  68  90 W7        29.99R
RED OAK *      CLOUDY    75  68  78 W6        29.98R
SHENANDOAH *   CLOUDY    72 -36   1 CALM      29.99R
$$

IAZ047>049-059>061-072>074-084-241600-
   CENTRAL IOWA

CITY           SKY/WX    TMP DP  RH WIND       PRES   REMARKS
AMES           SUNNY     75  69  81 W12       29.93R
ANKENY *         N/A    N/A N/A N/A MISG        N/A
BOONE *        PTSUNNY   73  68  83 W13       29.93R
CHARITON *       N/A     72  66  83 MISG      29.97R
DES MOINES     PTSUNNY   76  66  71 W9        29.94R
GRINNELL*      SUNNY     74  66  77 SW9       29.95R
KNOXVILLE *    MOSUNNY   75  66  73 W8        29.95R
MARSHALLTOWN   SUNNY     75  69  81 SW9       29.92R
NEWTON *       SUNNY     75  70  83 SW9       29.94S
PERRY *        CLOUDY    74  70  87 W9        29.95R
$$

IAZ004>006-015-016-023>025-035-036-241600-
   NORTH CENTRAL IOWA

CITY           SKY/WX    TMP DP  RH WIND       PRES   REMARKS
ALGONA *       CLOUDY    72  66  83 NW14      29.93R
ESTHERVILLE    CLOUDY    69  64  84 N9        29.94S
FORT DODGE *   CLOUDY    72  68  88 NW7       29.94R
MASON CITY     CLOUDY    71  68  90 NW9       29.92R
FOREST CITY *    N/A    N/A N/A N/A MISG        N/A
WEBSTER CITY * CLOUDY    72  70  94 NW9       29.91R
IOWA FALLS *     N/A     76  68  75 W10       29.93R
$$

IAZ007>011-017>019-026>030-037>042-050>054-066-241600-
   NORTHEAST IOWA

CITY           SKY/WX    TMP DP  RH WIND       PRES   REMARKS
CEDAR RAPIDS   MOSUNNY   76  72  87 W7        29.91S
CHARLES CITY * PTSUNNY   77  73  88 SW6       29.90R
CLINTON *      LGT RAIN  72  72 100 SE9       29.93S
DECORAH *      CLOUDY    72  72 100 S9G17     29.89R
DUBUQUE        CLOUDY    72  70  93 S8        29.93S
MONTICELLO *   CLOUDY    75  72  88 S8        29.91F
OELWEIN *      PTSUNNY   75  72  88 S12       29.91F
WATERLOO       SUNNY     77  70  79 S9        29.89S
$$

IAZ064-065-067-068-078-241600-
   EAST CENTRAL IOWA

CITY           SKY/WX    TMP DP  RH WIND       PRES   REMARKS
DAVENPORT      CLOUDY    76  73  91 SE7       29.91F
IOWA CITY      MOSUNNY   77  70  79 W13       29.93R
MT. PLEASANT * MOSUNNY   80  69  70 W13       29.94R HX  82
MUSCATINE *    MOSUNNY   79  68  69 W18       29.92R HX  81
QUAD CITIES    MOSUNNY   79  73  82 S8        29.89F HX  82
$$

IAZ062-063-075>077-085>089-095>099-241600-
   SOUTHEAST IOWA

CITY           SKY/WX    TMP DP  RH WIND       PRES   REMARKS
BURLINGTON     MOSUNNY   78  70  76 W8        29.94R HX  80
FAIRFIELD *    SUNNY     79  66  65 SW9       29.94R HX  81
FORT MADISON * SUNNY     77  68  73 W9        29.96R
KEOKUK *       MOSUNNY   79  68  69 SW12G17   29.96R HX  81
OSKALOOSA *      N/A     74  69  81 W12       29.96R
CENTERVILLE *    N/A     81  68  65 SW6       29.99R HX  83
OTTUMWA        MOSUNNY   77  66  68 W10       29.94R
WASHINGTON *   SUNNY     75  70  83 W14       29.95R
$$

ABBREVIATIONS USED IN REMARKS
   TC - TEMPERATURES IN CELSIUS
  WCI - WIND CHILL INDEX
   HX - HEAT INDEX
  VSB - VISIBILITY
$$





USA.gov is the U.S. government's official web portal to all federal, state and local government web resources and services.